Flag for U.S.A. Weather past 2 weeks in St. George, Utah, U.S.A.

Now
45 °F

Sunny.


Feels Like: 38 °F
Forecast: 28 / 40 °F
Wind: 15 mph from Southeast

Location: Saint George

Current Time: Dec 26, 2014 at 2:36:01 PM

Latest Report: Dec 26, 2014 at 1:55 PM


Visibility: 10 mi

Pressure: 30.01 "Hg

Humidity: 31%

Dew point: 16 °F

Location of St. GeorgeLocation

Historic Weather in St. George — Graph

°F

St. George temperature yesterday

Maximum temperature yesterday: 46 °F (at 12:35 PM)
Minimum temperature yesterday: 30 °F (at 12:15 AM)
Average temperature yesterday: 38 °F

Past Weeks' High & Low Weather Summary

 TemperatureHumidityPressure
High66 °F (Dec 12, 2:55 PM)87% (Dec 13, 10:35 AM)30.37 "Hg (Dec 13, 10:35 AM)
Low27 °F (Dec 26, 7:55 AM)19% (Dec 23, 3:35 PM)29.61 "Hg (Dec 25, 1:35 AM)
Average43 °F61%30.08 "Hg
* Reported Dec 11 1:15 PM — Dec 26 1:15 PM, St. George, Weather by CustomWeather, © 2014

Note: Actual official high and low records may vary slightly from our data, if they occured in-between our weather recording intervals... More about our weather records

Advertising

St. George weather history for previous 24 hours

 ConditionsComfort  
Time TempWeatherWind HumidityBarometerVisibility
1:15 PM
Dec 26
45 °FScattered clouds.16 mph34%30.01 "Hg10 mi
12:55 PM43 °FPartly sunny.9 mph36%30.02 "Hg10 mi
12:35 PM43 °FSunny.6 mph36%30.03 "Hg10 mi
12:15 PM43 °FSunny.7 mph36%30.04 "Hg10 mi
11:55 AM39 °FSunny.No wind42%30.04 "Hg10 mi
11:35 AM41 °FSunny.3 mph42%30.05 "Hg10 mi
11:15 AM41 °FSunny.6 mph42%30.06 "Hg10 mi
10:55 AM39 °FSunny.3 mph42%30.06 "Hg10 mi
10:35 AM39 °FSunny.5 mph45%30.06 "Hg10 mi
10:15 AM37 °FSunny.No wind48%30.05 "Hg10 mi
9:55 AM34 °FSunny.5 mph56%30.05 "Hg10 mi
9:35 AM32 °FSunny.3 mph60%30.04 "Hg10 mi
9:15 AM30 °FPassing clouds.No wind59%30.03 "Hg10 mi
8:55 AM30 °FScattered clouds.No wind59%30.02 "Hg10 mi
8:35 AM28 °FPassing clouds.3 mph64%30.02 "Hg10 mi
8:15 AM27 °FPassing clouds.5 mph69%30.01 "Hg10 mi
7:55 AM27 °FPassing clouds.5 mph69%30.00 "Hg10 mi
7:35 AM28 °FPassing clouds.5 mph64%29.99 "Hg10 mi
7:15 AM28 °FPassing clouds.6 mph64%29.98 "Hg10 mi
6:55 AM30 °FPassing clouds.No wind59%29.98 "Hg10 mi
6:35 AM30 °FClear.3 mph64%29.97 "Hg10 mi
6:15 AM28 °FClear.3 mph64%29.96 "Hg10 mi
5:55 AM28 °FPassing clouds.6 mph64%29.95 "Hg10 mi
5:35 AM28 °FClear.5 mph64%29.94 "Hg10 mi
5:15 AM30 °FClear.3 mph64%29.94 "Hg10 mi
4:55 AM30 °FClear.5 mph59%29.93 "Hg10 mi
4:35 AM30 °FPassing clouds.5 mph59%29.92 "Hg10 mi
4:15 AM30 °FPassing clouds.6 mph59%29.92 "Hg10 mi
3:55 AM28 °FClear.7 mph64%29.92 "Hg10 mi
3:35 AM28 °FClear.5 mph64%29.92 "Hg10 mi
3:15 AM28 °FClear.3 mph64%29.92 "Hg10 mi
2:55 AM30 °FClear.5 mph64%29.91 "Hg10 mi
2:35 AM30 °FPassing clouds.No wind64%29.90 "Hg10 mi
2:15 AM30 °FPassing clouds.7 mph59%29.89 "Hg10 mi
1:55 AM32 °FClear.6 mph55%29.89 "Hg10 mi
1:35 AM32 °FClear.8 mph60%29.87 "Hg10 mi
1:15 AM30 °FClear.6 mph64%29.87 "Hg10 mi
12:55 AM30 °FPassing clouds.8 mph64%29.87 "Hg10 mi
12:35 AM30 °FClear.5 mph59%29.87 "Hg10 mi
12:15 AM34 °FClear.8 mph51%29.87 "Hg10 mi
11:55 PM
Dec 25
34 °FClear.7 mph51%29.87 "Hg10 mi
11:35 PM34 °FClear.5 mph51%29.86 "Hg10 mi
11:15 PM34 °FClear.5 mph51%29.86 "Hg10 mi
10:55 PM34 °FPassing clouds.No wind51%29.86 "Hg10 mi
10:35 PM32 °FOvercast.7 mph55%29.85 "Hg10 mi
10:15 PM32 °FPassing clouds.6 mph60%29.85 "Hg10 mi
9:55 PM30 °FClear.7 mph59%29.84 "Hg10 mi
9:35 PM32 °FClear.5 mph55%29.84 "Hg10 mi
8:55 PM34 °FClear.3 mph56%29.84 "Hg10 mi
8:35 PM34 °FClear.3 mph60%29.84 "Hg10 mi
7:35 PM36 °FPassing clouds.3 mph56%29.82 "Hg10 mi
7:15 PM37 °FClear.5 mph48%29.82 "Hg10 mi
6:55 PM37 °FClear.5 mph48%29.81 "Hg10 mi
6:35 PM37 °FPassing clouds.3 mph52%29.81 "Hg10 mi
6:15 PM39 °FPassing clouds.No wind48%29.81 "Hg10 mi
5:55 PM39 °FPassing clouds.5 mph48%29.80 "Hg10 mi
5:35 PM39 °FPassing clouds.7 mph45%29.79 "Hg10 mi
5:15 PM41 °FOvercast.7 mph39%29.79 "Hg10 mi
4:55 PM41 °FMostly cloudy.10 mph39%29.79 "Hg10 mi
4:35 PM43 °FOvercast.12 mph39%29.79 "Hg10 mi
4:15 PM41 °FBroken clouds.13 mph39%29.78 "Hg10 mi
3:55 PM41 °FMostly cloudy.15 mph39%29.78 "Hg10 mi
3:35 PM39 °FOvercast.15 mph48%29.78 "Hg10 mi
3:15 PM41 °FPartly sunny.18 mph49%29.77 "Hg10 mi
2:55 PM41 °FOvercast.23 mph53%29.76 "Hg10 mi
2:35 PM39 °FPartly sunny.20 mph52%29.76 "Hg10 mi
2:15 PM39 °FPassing clouds.24 mph52%29.76 "Hg10 mi
Weather by CustomWeather, © 2014

See weather overviewHow to use our weather pages